AKST,Max TemperatureF,Mean TemperatureF,Min TemperatureF,Max Dew PointF,MeanDew PointF,Min DewpointF,Max Humidity, Mean Humidity, Min Humidity, Max Sea Level PressureIn, Mean Sea Level PressureIn, Min Sea Level PressureIn, Max VisibilityMiles, Mean VisibilityMiles, Min VisibilityMiles, Max Wind SpeedMPH, Mean Wind SpeedMPH, Max Gust SpeedMPH,PrecipitationIn, CloudCover, Events, WindDirDegrees
2012-12-1,14,13,12,-1,-4,-7,54,47,42,29.75,29.66,29.58,10,10,10,13,9,25,0.00,6,,315
2012-12-2,12,11,10,7,4,-6,85,76,46,29.57,29.52,29.49,10,4,2,13,9,21,0.00,8,Snow,312
2012-12-3,10,8,7,5,3,-5,80,74,58,29.73,29.65,29.55,10,4,1,17,11,30,0.00,8,Snow,311
2012-12-4,10,8,6,1,-3,-7,79,62,48,29.64,29.53,29.47,10,7,2,24,17,36,0.00,7,Snow,307
2012-12-5,12,10,8,7,4,-3,87,77,56,29.78,29.74,29.64,10,4,0,21,15,31,0.05,8,Fog-Snow,295
2012-12-6,14,12,10,9,7,6,87,82,71,29.83,29.81,29.78,10,5,1,21,12,25,0.01,7,Snow,292
2012-12-7,16,13,7,6,2,-2,70,60,54,30.19,30.00,29.79,10,10,10,18,15,25,0.00,5,,307
2012-12-8,15,10,5,11,7,-2,92,84,67,30.25,30.07,29.80,10,4,0,17,11,,0.20,7,Fog-Snow,291
2012-12-9,25,20,14,23,16,10,100,88,80,29.83,29.73,29.67,10,5,0,21,9,26,0.09,8,Fog-Snow,295
2012-12-10,37,31,25,36,31,24,100,92,87,29.84,29.57,29.39,10,6,1,16,11,25,0.16,8,Rain-Snow,317
2012-12-11,35,27,18,31,24,15,89,78,66,29.87,29.73,29.44,10,10,10,15,13,23,0.00,0,,310
2012-12-12,36,26,15,34,25,12,93,89,86,29.87,29.54,29.18,10,9,4,22,8,38,0.00,7,Rain-Snow,85
2012-12-13,39,36,32,36,34,30,96,89,82,29.48,29.29,29.16,10,10,8,21,12,36,0.03,8,Rain,91
2012-12-14,39,36,33,34,33,30,93,89,81,29.48,29.17,28.86,10,7,1,18,12,31,1.24,8,Rain-Snow,87
2012-12-15,37,35,33,36,34,32,93,90,86,29.14,28.96,28.81,10,9,5,16,11,28,0.25,7,Rain-Snow,91
2012-12-16,35,26,18,32,19,9,93,85,68,29.45,29.26,29.13,10,3,0,18,12,31,0.06,8,Fog-Snow,302
2012-12-17,16,12,8,10,1,-5,77,59,54,29.82,29.70,29.48,10,10,5,20,15,31,0.00,4,Snow,310
2012-12-18,6,3,0,-2,-5,-7,76,70,60,29.81,29.66,29.51,10,10,10,22,16,28,0.00,2,,297
2012-12-19,17,12,7,1,0,-2,70,54,47,29.87,29.62,29.49,10,10,10,17,12,23,0.00,4,,318
2012-12-20,15,12,10,0,-4,-5,56,48,45,30.25,30.10,29.89,10,10,10,16,12,29,0.00,5,,310
2012-12-21,10,9,8,-4,-7,-9,53,48,44,30.29,30.25,30.18,10,10,10,18,10,25,0.00,0,,320
2012-12-22,6,4,3,-8,-10,-12,53,51,48,30.18,30.10,30.02,10,10,10,21,15,28,0.00,3,,310
2012-12-23,9,7,5,0,-6,-10,73,54,46,30.05,30.01,30.00,10,10,5,18,14,23,0.00,6,Snow,306
2012-12-24,10,8,5,5,3,0,85,77,67,30.19,30.12,30.06,10,8,2,15,12,,0.00,5,Snow,291
2012-12-25,12,8,3,6,3,0,84,80,73,30.05,29.96,29.89,10,10,10,16,11,16,0.00,0,,296
2012-12-26,12,6,1,3,1,-3,84,74,62,29.95,29.93,29.87,10,10,10,16,10,18,0.00,0,,295
2012-12-27,18,10,3,16,11,-1,93,86,70,29.94,29.76,29.72,10,4,0,14,9,,0.12,8,Fog-Snow,294
2012-12-28,26,22,17,23,19,15,93,91,86,30.07,29.88,29.76,10,3,1,16,10,,0.03,8,Snow,291
2012-12-29,36,28,21,34,25,19,100,93,86,30.12,30.06,29.95,10,5,2,10,7,17,0.15,8,Rain-Snow,293
2012-12-30,39,36,33,36,35,33,100,92,86,29.93,29.83,29.76,10,9,5,15,11,28,0.80,8,Rain,88
2012-12-31,39,36,33,36,34,32,100,97,81,30.26,30.00,29.78,10,7,2,12,4,,0.02,8,Rain,303